Weather History for McComb, MS

Change the Weather History Date:

Monday, February 11, 2013

  Actual Average Record
Temperature  
Mean Temperature 56 °F -  
Max Temperature 61 °F 62 °F 80 °F (1999)
Min Temperature 51 °F 37 °F 19 °F (1981)
Degree Days  
Heating Degree Days 9    
Growing Degree Days 6 (Base 50)    
Moisture  
Dew Point 54 °F    
Average Humidity 97    
Maximum Humidity 100    
Minimum Humidity 88    
Precipitation  
Precipitation 2.57 in - - ()
Sea Level Pressure  
Sea Level Pressure 30.08 in    
Wind  
Wind Speed 5 mph (NNE)    
Max Wind Speed 22 mph    
Max Gust Speed 37 mph    
Visibility 6 miles    
Events Rain , Thunderstorm    
Averages and records for this station are not official NWS values.
T = Trace of Precipitation, MM = Missing Value Source: NWS Daily Summary

Daily Weather History Graph

Daily Weather History Graph

Search for Another Location

Airport:

Trip Planner

Search our weather history database for the weather conditions in past years. The results will help you decide how hot, cold, wet, or windy it might be!

Date:

Astronomy

Feb. 11, 2013 Rise Set
Actual Time 6:46 AM CST 5:46 PM CST
Civil Twilight 6:21 AM CST 6:11 PM CST
Nautical Twilight 5:52 AM CST 6:39 PM CST
Astronomical Twilight 5:24 AM CST 7:07 PM CST
Moon 7:20 AM CST (2/11) 7:31 PM CST (2/11)
Length of Visible Light 11h 49m
Length of Day
10h 59m
Waxing Crescent, 3% of the Moon is Illuminated
Feb 11
Waxing Crescent
Feb 17
First Quarter
Feb 25
Full
Mar 4
Last Quarter
Mar 11
New

Hourly Weather History & Observations

Time (CST) Temp. Dew Point Humidity Pressure Visibility Wind Dir Wind Speed Gust Speed Precip Events Conditions
12:14 AM 60.8 °F 60.8 °F 100% 29.99 in 8.0 mi Calm Calm - 0.01 in Thunderstorm Overcast
12:32 AM 60.8 °F 60.8 °F 100% 30.00 in 0.8 mi Calm Calm - 0.23 in Rain , Thunderstorm Heavy Thunderstorms and Rain
12:44 AM 60.8 °F 60.8 °F 100% 30.00 in 2.0 mi South 4.6 mph - 0.33 in Rain , Thunderstorm Thunderstorms and Rain
12:53 AM 61.0 °F 61.0 °F 100% 29.99 in 8.0 mi Calm Calm - 0.33 in Rain , Thunderstorm Light Rain
1:08 AM 60.8 °F 60.8 °F 100% 29.99 in 8.0 mi North 5.8 mph - 0.00 in Thunderstorm Overcast
1:17 AM 60.8 °F 60.8 °F 100% 29.99 in 8.0 mi Calm Calm - 0.00 in   Overcast
1:32 AM 60.8 °F 60.8 °F 100% 30.00 in 9.0 mi Calm Calm - 0.00 in   Overcast
1:53 AM 61.0 °F 61.0 °F 100% 29.99 in 10.0 mi Calm Calm - 0.00 in   Overcast
2:53 AM 61.0 °F 60.1 °F 97% 29.97 in 6.0 mi East 3.5 mph - 0.01 in Rain Light Rain
3:17 AM 60.8 °F 60.8 °F 100% 29.98 in 4.0 mi Calm Calm - 0.00 in Rain Light Rain
3:30 AM 60.8 °F 60.8 °F 100% 29.99 in 5.0 mi North 4.6 mph - 0.01 in Thunderstorm Overcast
3:42 AM 60.8 °F 60.8 °F 100% 30.00 in 4.0 mi North 8.1 mph - 0.01 in   Overcast
3:50 AM 60.8 °F 60.8 °F 100% 30.02 in 3.0 mi NNW 15.0 mph - 0.03 in Rain Light Rain
3:53 AM 61.0 °F 60.1 °F 97% 30.01 in 2.5 mi NNW 16.1 mph 21.9 mph 0.08 in Rain , Thunderstorm Heavy Rain
4:02 AM 60.8 °F 57.2 °F 88% 30.04 in 1.5 mi NNW 21.9 mph 36.8 mph 0.09 in Rain , Thunderstorm Heavy Rain
4:08 AM 59.0 °F 55.4 °F 88% 30.03 in 3.0 mi North 15.0 mph 35.7 mph 0.10 in Rain Rain
4:15 AM 59.0 °F 55.4 °F 88% 30.02 in 6.0 mi North 13.8 mph 24.2 mph 0.11 in Rain Light Rain
4:53 AM 57.9 °F 55.9 °F 93% 30.06 in 8.0 mi North 10.4 mph - 0.20 in Rain , Thunderstorm Light Thunderstorms and Rain
5:26 AM 55.4 °F 53.6 °F 94% 30.06 in 10.0 mi North 6.9 mph - 0.06 in Rain Light Rain
5:53 AM 55.9 °F 53.1 °F 90% 30.05 in 10.0 mi North 9.2 mph - 0.08 in Rain , Thunderstorm Light Rain
6:38 AM 55.4 °F 51.8 °F 88% 30.10 in 10.0 mi Variable 6.9 mph 21.9 mph 0.10 in Rain Light Rain
6:53 AM 55.0 °F 54.0 °F 96% 30.10 in 3.0 mi North 5.8 mph - 0.17 in Rain , Thunderstorm Heavy Rain
7:00 AM 55.4 °F 53.6 °F 94% 30.12 in 6.0 mi NNW 8.1 mph - 0.01 in Rain , Thunderstorm Light Rain
7:15 AM 53.6 °F 51.8 °F 94% 30.10 in 4.0 mi North 10.4 mph 17.3 mph 0.05 in Rain Heavy Rain
7:53 AM 52.0 °F 50.0 °F 93% 30.15 in 5.0 mi NNE 6.9 mph - 0.12 in Rain Light Rain
8:53 AM 52.0 °F 51.1 °F 97% 30.16 in 8.0 mi North 6.9 mph - 0.04 in Rain Light Rain
9:01 AM 51.8 °F 51.8 °F 100% 30.17 in 9.0 mi NNE 6.9 mph - 0.00 in Rain Light Rain
9:53 AM 52.0 °F 50.0 °F 93% 30.17 in 2.5 mi Variable 4.6 mph - 0.08 in Rain Rain
10:01 AM 51.8 °F 50.0 °F 94% 30.16 in 4.0 mi NE 6.9 mph - 0.01 in Rain Rain
10:42 AM 51.8 °F 50.0 °F 94% 30.15 in 2.0 mi NE 6.9 mph - 0.14 in Rain Heavy Rain
10:53 AM 52.0 °F 50.0 °F 93% 30.14 in 1.8 mi Variable 5.8 mph - 0.20 in Rain Heavy Rain
11:02 AM 51.8 °F 50.0 °F 94% 30.15 in 1.5 mi ENE 5.8 mph - 0.05 in Rain Heavy Rain
11:16 AM 51.8 °F 51.8 °F 100% 30.16 in 2.5 mi East 5.8 mph - 0.10 in Rain Rain
11:25 AM 51.8 °F 51.8 °F 100% 30.14 in 4.0 mi ENE 4.6 mph - 0.11 in Rain Light Rain
11:36 AM 51.8 °F 51.8 °F 100% 30.15 in 2.0 mi NE 5.8 mph - 0.15 in Rain Rain
11:53 AM 52.0 °F 51.1 °F 97% 30.12 in 1.8 mi ENE 8.1 mph - 0.22 in Rain Heavy Rain
12:00 PM 51.8 °F 51.8 °F 100% 30.12 in 3.0 mi Variable 4.6 mph - 0.01 in Rain Light Rain
12:11 PM 51.8 °F 51.8 °F 100% 30.14 in 4.0 mi NE 4.6 mph - 0.03 in Rain , Thunderstorm Rain
12:23 PM 51.8 °F 51.8 °F 100% 30.13 in 2.0 mi ENE 5.8 mph - 0.08 in Rain , Thunderstorm Heavy Rain
12:31 PM 51.8 °F 51.8 °F 100% 30.13 in 2.5 mi East 3.5 mph - 0.11 in Rain Rain
12:42 PM 51.8 °F 51.8 °F 100% 30.09 in 5.0 mi ENE 6.9 mph - 0.13 in Rain Light Rain
12:53 PM 52.0 °F 51.1 °F 97% 30.07 in 6.0 mi East 6.9 mph - 0.13 in Rain Light Rain
1:04 PM 53.6 °F 51.8 °F 94% 30.07 in 10.0 mi ENE 9.2 mph - 0.01 in Rain , Thunderstorm Light Thunderstorms and Rain
1:23 PM 53.6 °F 51.8 °F 94% 30.06 in 9.0 mi ENE 5.8 mph - 0.03 in Rain Light Rain
1:37 PM 53.6 °F 51.8 °F 94% 30.07 in 10.0 mi Variable 5.8 mph - 0.03 in Rain , Thunderstorm Light Rain
1:53 PM 54.0 °F 52.0 °F 93% 30.06 in 10.0 mi East 4.6 mph - 0.03 in Rain Light Rain
2:34 PM 53.6 °F 51.8 °F 94% 30.03 in 10.0 mi NE 10.4 mph - 0.01 in Rain , Thunderstorm Light Rain
2:47 PM 53.6 °F 53.6 °F 100% 30.08 in 1.5 mi Variable 5.8 mph - 0.13 in Rain , Thunderstorm Heavy Thunderstorms and Rain
2:53 PM 54.0 °F 53.1 °F 97% 30.09 in 1.0 mi South 5.8 mph - 0.16 in Rain , Thunderstorm Heavy Thunderstorms and Rain
3:00 PM 53.6 °F 51.8 °F 94% 30.06 in 3.0 mi East 4.6 mph - 0.01 in Rain , Thunderstorm Thunderstorms and Rain
3:17 PM 53.6 °F 53.6 °F 100% 30.07 in 5.0 mi Calm Calm - 0.03 in Rain , Thunderstorm Light Rain
3:26 PM 53.6 °F 53.6 °F 100% 30.06 in 3.0 mi NE 4.6 mph - 0.06 in Rain Rain
3:31 PM 53.6 °F 51.8 °F 94% 30.06 in 5.0 mi NE 4.6 mph - 0.06 in Rain , Thunderstorm Light Rain
3:44 PM 53.6 °F 53.6 °F 100% 30.07 in 10.0 mi NNE 5.8 mph - 0.06 in Rain , Thunderstorm Light Rain
3:53 PM 54.0 °F 53.1 °F 97% 30.06 in 10.0 mi NNE 5.8 mph - 0.07 in   Overcast
4:53 PM 54.0 °F 53.1 °F 97% 30.08 in 10.0 mi NNW 4.6 mph - 0.05 in Rain Light Rain
5:09 PM 53.6 °F 53.6 °F 100% 30.07 in 10.0 mi Calm Calm - 0.00 in Thunderstorm Thunderstorm
5:21 PM 53.6 °F 53.6 °F 100% 30.07 in 1.8 mi Variable 5.8 mph - 0.09 in Rain , Thunderstorm Heavy Thunderstorms and Rain
5:29 PM 53.6 °F 53.6 °F 100% 30.06 in 3.0 mi ENE 5.8 mph - 0.10 in Rain , Thunderstorm Light Thunderstorms and Rain
5:38 PM 53.6 °F 53.6 °F 100% 30.08 in 10.0 mi North 5.8 mph - 0.10 in   Overcast
5:53 PM 54.0 °F 53.1 °F 97% 30.07 in 10.0 mi NE 3.5 mph - 0.10 in   Overcast
6:27 PM 53.6 °F 51.8 °F 94% 30.07 in 10.0 mi NNE 4.6 mph - 0.00 in Rain Light Rain
6:44 PM 53.6 °F 53.6 °F 100% 30.10 in 10.0 mi NNW 4.6 mph - 0.00 in Rain , Thunderstorm Light Thunderstorms and Rain
6:53 PM 54.0 °F 53.1 °F 97% 30.10 in 7.0 mi NNE 3.5 mph - 0.02 in Rain , Thunderstorm Thunderstorms and Rain
7:03 PM 53.6 °F 53.6 °F 100% 30.11 in 4.0 mi North 4.6 mph - 0.02 in Rain Light Rain
7:21 PM 53.6 °F 53.6 °F 100% 30.13 in 7.0 mi NNW 9.2 mph - 0.08 in Rain , Thunderstorm Light Rain
7:36 PM 53.6 °F 53.6 °F 100% 30.10 in 8.0 mi NE 5.8 mph - 0.09 in Rain Light Rain
7:53 PM 54.0 °F 53.1 °F 97% 30.09 in 10.0 mi NNE 8.1 mph - 0.09 in   Overcast
8:03 PM 53.6 °F 53.6 °F 100% 30.09 in 10.0 mi Variable 6.9 mph - N/A   Overcast
8:50 PM 53.6 °F 51.8 °F 94% 30.08 in 10.0 mi NNE 8.1 mph - 0.02 in Thunderstorm Overcast
8:53 PM 53.1 °F 52.0 °F 96% 30.08 in 10.0 mi NNE 9.2 mph - 0.02 in Thunderstorm Overcast
9:05 PM 53.6 °F 51.8 °F 94% 30.11 in 9.0 mi North 8.1 mph - 0.01 in Rain Light Rain
9:21 PM 53.6 °F 51.8 °F 94% 30.10 in 3.0 mi NE 5.8 mph - 0.09 in Rain , Thunderstorm Rain
9:40 PM 53.6 °F 51.8 °F 94% 30.09 in 6.0 mi NNE 6.9 mph - 0.15 in Rain , Thunderstorm Light Rain
9:53 PM 53.1 °F 52.0 °F 96% 30.08 in 10.0 mi ENE 6.9 mph - 0.15 in Rain Light Rain
10:06 PM 53.6 °F 51.8 °F 94% 30.08 in 10.0 mi NE 6.9 mph - 0.00 in Thunderstorm Overcast
10:38 PM 53.6 °F 51.8 °F 94% 30.09 in 10.0 mi North 5.8 mph - 0.01 in   Overcast
10:53 PM 53.1 °F 52.0 °F 96% 30.07 in 9.0 mi NE 8.1 mph - 0.02 in Rain Light Rain
11:40 PM 51.8 °F 51.8 °F 100% 30.08 in 2.5 mi North 5.8 mph - 0.08 in Rain , Thunderstorm Heavy Rain
11:49 PM 51.8 °F 51.8 °F 100% 30.06 in 3.0 mi NNE 11.5 mph 17.3 mph 0.16 in Rain , Thunderstorm Heavy Rain
11:53 PM 52.0 °F 51.1 °F 97% 30.07 in 2.0 mi NNE 9.2 mph 17.3 mph 0.20 in Rain , Thunderstorm Heavy Rain